Weather History for Dutch Harbor, AK

Change the Weather History Date:

Sunday, May 26, 2013

  Actual Average Record
Temperature  
Mean Temperature 42 °F -  
Max Temperature 44 °F 47 °F 53 °F (2006)
Min Temperature 41 °F 37 °F 22 °F (1984)
Degree Days  
Heating Degree Days 22    
Moisture  
Dew Point 38 °F    
Average Humidity 85    
Maximum Humidity 92    
Minimum Humidity 80    
Precipitation  
Precipitation 0.00 in - - ()
Sea Level Pressure  
Sea Level Pressure 29.65 in    
Wind  
Wind Speed 5 mph (SE)    
Max Wind Speed 12 mph    
Max Gust Speed -    
Visibility 9 miles    
Events Rain    
Averages and records for this station are not official NWS values.
T = Trace of Precipitation, MM = Missing Value Source: NWS Daily Summary

Daily Weather History Graph

Daily Weather History Graph

Search for Another Location

Airport:

Trip Planner

Search our weather history database for the weather conditions in past years. The results will help you decide how hot, cold, wet, or windy it might be!

Date:

Astronomy

May. 26, 2013 Rise Set
Actual Time 6:47 AM AKDT 11:20 PM AKDT
Civil Twilight 5:58 AM AKDT 12:09 AM AKDT
Nautical Twilight 4:40 AM AKDT 1:28 AM AKDT
Astronomical Twilight 3:35 AM AKDT 2:30 AM AKDT
Moon 12:17 AM AKDT (5/26) 8:34 AM AKDT (5/26)
Length of Visible Light 18h 11m
Length of Day
16h 32m
Waning Gibbous, 96% of the Moon is Illuminated
May 26
Waning Gibbous
May 31
Last Quarter
Jun 8
New
Jun 16
First Quarter
Jun 23
Full

Hourly Weather History & Observations

Time (AKDT) Temp. Windchill Dew Point Humidity Pressure Visibility Wind Dir Wind Speed Gust Speed Precip Events Conditions
12:13 AM 44.6 °F 43.1 °F 39.2 °F 81% 29.49 in 8.0 mi SE 3.5 mph - N/A   Overcast
12:38 AM 44.6 °F - 39.2 °F 81% 29.50 in 10.0 mi Calm Calm - N/A   Overcast
12:56 AM 44.1 °F - 39.9 °F 85% 29.52 in 10.0 mi Calm Calm - N/A   Overcast
1:56 AM 43.0 °F - 39.9 °F 89% 29.54 in 10.0 mi Calm Calm - N/A   Overcast
2:56 AM 42.1 °F 37.7 °F 39.9 °F 92% 29.55 in 10.0 mi SW 6.9 mph - 0.00 in   Overcast
3:30 AM 42.8 °F 41.1 °F 39.2 °F 87% 29.54 in 7.0 mi South 3.5 mph - 0.00 in Rain Light Rain
3:56 AM 42.1 °F 40.2 °F 39.0 °F 89% 29.55 in 10.0 mi SSW 3.5 mph - 0.00 in   Overcast
4:56 AM 42.1 °F 37.1 °F 39.0 °F 89% 29.57 in 10.0 mi SSW 8.1 mph - 0.00 in Rain Light Rain
5:15 AM 42.8 °F 37.5 °F 39.2 °F 87% 29.55 in 7.0 mi SSW 9.2 mph - 0.00 in Rain Light Rain
5:56 AM 41.0 °F 35.2 °F 37.9 °F 89% 29.58 in 8.0 mi SSW 9.2 mph - 0.00 in Rain Light Rain
6:35 AM 41.0 °F 34.7 °F 37.4 °F 87% 29.57 in 6.0 mi South 10.4 mph - 0.00 in   Overcast
6:56 AM 41.0 °F 34.7 °F 37.9 °F 89% 29.59 in 7.0 mi South 10.4 mph - 0.00 in   Overcast
7:12 AM 41.0 °F 35.2 °F 37.4 °F 87% 29.57 in 9.0 mi South 9.2 mph - N/A   Overcast
7:56 AM 41.0 °F 34.3 °F 37.0 °F 86% 29.60 in 10.0 mi South 11.5 mph - N/A   Overcast
8:56 AM 42.1 °F 36.6 °F 37.0 °F 82% 29.62 in 10.0 mi South 9.2 mph - N/A   Overcast
9:56 AM 42.1 °F 38.4 °F 39.0 °F 89% 29.64 in 10.0 mi ESE 5.8 mph - N/A   Overcast
10:56 AM 42.1 °F 38.4 °F 39.0 °F 89% 29.65 in 10.0 mi East 5.8 mph - N/A   Overcast
11:08 AM 42.8 °F 40.1 °F 39.2 °F 87% 29.64 in 10.0 mi East 4.6 mph - N/A   Overcast
11:56 AM 42.1 °F 38.4 °F 37.9 °F 85% 29.67 in 10.0 mi East 5.8 mph - N/A   Overcast
12:56 PM 42.1 °F 38.4 °F 37.9 °F 85% 29.69 in 10.0 mi East 5.8 mph - N/A   Overcast
1:56 PM 42.1 °F 38.4 °F 37.9 °F 85% 29.70 in 10.0 mi East 5.8 mph - 0.00 in Rain Light Rain
2:56 PM 43.0 °F 39.5 °F 37.9 °F 82% 29.71 in 10.0 mi East 5.8 mph - 0.00 in Rain Light Rain
3:56 PM 43.0 °F 38.8 °F 37.9 °F 82% 29.73 in 10.0 mi East 6.9 mph - 0.00 in Rain Light Rain
4:56 PM 43.0 °F 38.8 °F 37.0 °F 80% 29.73 in 10.0 mi East 6.9 mph - 0.00 in   Overcast
5:56 PM 43.0 °F 37.2 °F 37.0 °F 80% 29.74 in 10.0 mi East 10.4 mph - N/A   Overcast
6:56 PM 42.1 °F 36.6 °F 37.0 °F 82% 29.75 in 10.0 mi East 9.2 mph - N/A   Overcast
7:56 PM 43.0 °F 38.2 °F 37.0 °F 80% 29.77 in 10.0 mi East 8.1 mph - N/A   Overcast
8:56 PM 42.1 °F 37.7 °F 37.0 °F 82% 29.78 in 10.0 mi ESE 6.9 mph - N/A   Overcast
9:13 PM 42.8 °F 39.3 °F 37.4 °F 81% 29.76 in 10.0 mi East 5.8 mph - N/A   Overcast
9:56 PM 42.1 °F 38.4 °F 37.0 °F 82% 29.79 in 10.0 mi East 5.8 mph - N/A   Overcast
10:56 PM 41.0 °F 39.0 °F 37.0 °F 86% 29.81 in 10.0 mi East 3.5 mph - N/A   Overcast
11:56 PM 41.0 °F - 37.0 °F 86% 29.82 in 10.0 mi Calm Calm - N/A   Overcast